Location: Newark
(6.9000°N, 10.0000°E)
Time: 15:04:01
(UTC+00:00)

Envisat - Pass Details

Date: 28 October 2019
Orbit: 764 x 766 km, 98.1° (Epoch: 17 November)

Event Time Altitude Azimuth Distance (km) Brightness Sun altitude
Rises 17:21:39 0° 155° (SSE) 3,223 6.1 -5.9°
Reaches altitude 10° 17:24:02 10° 149° (SSE) 2,296 5.3 -6.5°
Maximum altitude 17:28:51 45° 77° (ENE) 1,035 3.3 -7.6°
Drops below altitude 10° 17:33:39 10° 6° (N) 2,291 5.3 -8.8°
Sets 17:36:01 0° 359° (N) 3,216 6.1 -9.4°
